Regional Weather Roundup
Issued by NWS

Home | Current Version | Previous Version | Text Only | Print | Product List | Glossary Off
Versions: 1 2 3 4 5 6 7 8 9 10 11 12 13 14 15 16 17 18 19 20 21 22 23 24 25 26 27 28 29 30 31 32 33 34 35 36 37 38 39 40 41 42 43 44 45 46 47 48 49 50

772
ASUS43 KFSD 290802
RWRSD

WEATHER ROUNDUP FOR SOUTH DAKOTA
NATIONAL WEATHER SERVICE SIOUX FALLS SD
300 AM CDT FRI JUL 29 2016

NOTE: "FAIR" INDICATES FEW OR NO CLOUDS BELOW 12,000 FEET WITH NO
SIGNIFICANT WEATHER AND/OR OBSTRUCTIONS TO VISIBILITY.


SDZ001>005-009-010-012>017-290900-
NORTHWEST AND NORTH CENTRAL SOUTH DAKOTA

CITY           SKY/WX    TMP DP  RH WIND       PRES   REMARKS
BUFFALO          N/A     61  60  97 S7        30.10S
FAITH            N/A     60  58  92 CALM      30.14S
MOBRIDGE       CLOUDY    69  58  67 E7        30.07F
$$

SDZ012>016-024>037-041>051-057-063-072>074-290900-
SOUTHWEST AND SOUTH CENTRAL SOUTH DAKOTA

CITY           SKY/WX    TMP DP  RH WIND       PRES   REMARKS
RAPID CTY ARPT MOCLDY    56  55  97 SE3       30.16S FOG
PIERRE         CLOUDY    64  62  93 W7        30.09S
CUSTER         FOG       53  52  96 NW5       30.24F VSB 1/4
PHILIP         PTCLDY    59  59 100 CALM      30.12F
PINE RIDGE     PTCLDY    57  57 100 CALM      30.16S
WINNER         CLOUDY    64  62  93 NW5       30.12S
$$

SDZ004>011-016>023-039-040-290900-
NORTHEAST SOUTH DAKOTA

CITY           SKY/WX    TMP DP  RH WIND       PRES   REMARKS
ABERDEEN       CLOUDY    66  61  84 E7        30.09F
WATERTOWN      CLOUDY    67  57  70 CALM      30.10F
BROOKINGS      CLEAR     56  54  93 CALM      30.09F
SISSETON         N/A     63  60  90 W5        30.08F
$$

SDZ017-020-022-023-036>040-048>070-290900-
SOUTHEAST SOUTH DAKOTA

CITY           SKY/WX    TMP DP  RH WIND       PRES   REMARKS
SIOUX FALLS    PTCLDY    58  55  90 N5        30.08S
HURON          PTCLDY    62  57  83 CALM      30.08F
CHAMBERLAIN    CLOUDY    68  66  94 CALM      30.10S
MITCHELL       MOCLDY    62  58  86 E6        30.09S
YANKTON        CLOUDY    63  55  77 NE7       30.06S
$$

ABBREVIATIONS USED IN REMARKS
   TC - TEMPERATURE IN CELSIUS
  WCI - WIND CHILL INDEX
   HX - HEAT INDEX
  VSB - VISIBILITY





USA.gov is the U.S. government's official web portal to all federal, state and local government web resources and services.